Tracking 28081 objects as of 26-Sep-2023
HD Live streaming from Space Station
objects crossing your sky now

STARLINK-3648

Track STARLINK-3648 now!
10-day predictions
STARLINK-3648 is classified as:


NORAD ID: 51993
Int'l Code: 2022-025AP
Perigee: 546.0 km
Apogee: 547.7 km
Inclination: 53.2 °
Period: 95.4 minutes
Semi major axis: 6917 km
RCS: Unknown
Launch date: March 9, 2022
Source: United States (US)
Launch site: AIR FORCE EASTERN TEST RANGE (AFETR)
Your satellite tracking list
Your tracking list is empty




NASA's NSSDC Master Catalog

Two Line Element Set (TLE):
1 51993U 22025AP  23268.86187091  .00004715  00000-0  31399-3 0  9994
2 51993  53.2160 100.6488 0001212  92.7799 267.3332 15.08853842 86938
Source of the keplerian elements: AFSPC